Regional Weather Roundup
Issued by NWS

Home | Current Version | Previous Version | Text Only | Print | Product List | Glossary On
Versions: 1 2 3 4 5 6 7 8 9 10 11 12 13 14 15 16 17 18 19 20 21 22 23 24 25 26 27 28
000
ASUS45 KREV 191410
RWRNV
NEVADA REGIONAL WEATHER ROUNDUP
NATIONAL WEATHER SERVICE RENO NV
700 AM PDT SAT AUG 19 2017

NOTE: "FAIR" INDICATES FEW OR NO CLOUDS BELOW 12,000 FEET WITH NO
SIGNIFICANT WEATHER AND/OR OBSTRUCTIONS TO VISIBILITY.

NVZ001-003-004-191500-
WESTERN NEVADA

CITY           SKY/WX    TMP DP  RH WIND       PRES   REMARKS
RENO           PTCLDY    66  46  48 W3        30.10S
MINDEN         FAIR      50  41  71 CALM      30.13S
FALLON         PTCLDY    67  37  33 S5        30.04R
LOVELOCK       CLEAR     53  36  52 CALM      30.04R
HAWTHORNE      CLEAR     70  39  32 SW5       30.07R
$$

NVZ002-CAZ072-073-191500-
NORTHERN AND CENTRAL SIERRA

CITY           SKY/WX    TMP DP  RH WIND       PRES   REMARKS
S. LAKE TAHOE  CLEAR     46  42  86 S3        30.24R
TRUCKEE          N/A     43  43 100 CALM      30.23S
SQUAW VLY 8000   N/A     59  37  44 W1          N/A
SUSANVILLE     CLEAR     54  37  54 CALM      30.09S HAZE
MAMMOTH LAKES  FAIR      46  36  68 NE5       30.31R
BRIDGEPORT     FAIR      49  39  68 CALM      30.27R
$$

NVZ030-031-036-191500-
NORTHERN NEVADA

CITY           SKY/WX    TMP DP  RH WIND       PRES   REMARKS
ELKO           MOSUNNY   53  26  35 NE6       30.16R
WINNEMUCCA     CLEAR     49  29  46 CALM      30.07S
WENDOVER       MOSUNNY   67  36  31 CALM      30.07R
$$

NVZ035-037-191500-
CENTRAL NEVADA

CITY           SKY/WX    TMP DP  RH WIND       PRES   REMARKS
ELY            PTSUNNY   57  36  45 S7        30.23R
EUREKA           N/A     58  31  35 S6        30.19S
$$

NVZ013-014-191500-
SOUTH CENTRAL NEVADA

CITY           SKY/WX    TMP DP  RH WIND       PRES   REMARKS
TONOPAH        PTCLDY    62  37  39 N10       30.17R
$$

NVZ017-020-022-191500-
SOUTHERN NEVADA

CITY           SKY/WX    TMP DP  RH WIND       PRES   REMARKS
LAS VEGAS      MOSUNNY   82  40  22 W3        29.93R
N. LAS VEGAS   SUNNY     76  37  24 N5        29.93R
NELLIS AFB     SUNNY     78  37  22 NE5       29.91R
HENDERSON      SUNNY     80  38  22 SW10      29.97R
MERCURY        CLEAR     70  37  29 E7        30.01R
$$




USA.gov is the U.S. government's official web portal to all federal, state and local government web resources and services.